Search the data

BODC Cruise Metadata Report for FRV Scotia (748S) cruise 1604S

Introduction

This report collates information from the BODC cruise inventory and oceanographic databases. It presents

Cruise Inventory Information

Long name FRV Scotia (748S) cruise 1604S
Short name 1604S
Objectives and Narrative 1. To participate in the ICES co-ordinated Western Division Bottom Trawl Survey.
2. To obtain temperature and salinity data at each trawling position.
3. To carry out benthic sampling at selected trawling stations.
Ship FRV Scotia
Departure Port Aberdeen, United Kingdom
Departure Date 2004-11-11
Arrival Port Aberdeen, United Kingdom
Arrival Date 2004-12-03
Principal Scientist(s) Alexander P Robb (Fisheries Research Services Aberdeen Marine Laboratory)
Responsible Organisation JNCC Peterborough
Associated Project(s)
IHB Sea Areas Visited Inner Seas off the West Coast of Scotland, Irish Sea and St. George's Channel, North East Atlantic Ocean (limit 40W)
Marsden Squares Visited 181;1/181;2/181;3/181;4/182;1
Work Area Description North and west of Scotland; NW Ireland; Irish Sea
Work Area Bounding Polygon 50N,15W; 60N,15W; 60N,0E; 50N,0E; 50N,15W
Southern Limit 50N
Northern Limit 60N
Western Limit 15W
Eastern Limit 0E

Cruise Inventory Datasets

Physical oceanography  
CTD stations Quantity: number of stations = 80
Description: CTD deployed at each trawling positions.  
Biology and fisheries  
Demersal fish Quantity: number of hauls = 80
Description: GOV trawls  
Pelagic fish Quantity: number of hauls = 80
Description: GOV trawls  
Zoobenthos Quantity: number of stations = 25
Description: sampled using 2m beam trawl and vanVeen grab for epibenthic samples and benthic infauna.  

Cruise Inventory Mooring/Buoy Operations

No information on datasets is currently available

Summary of BODC Data Holdings for the Cruise

National Oceanographic Database

Summary

# Series Instrument Description Parameters
78 CTD/STD cast Chlorophyll pigment concentrations in water bodies
Electrical conductivity of the water column
Salinity of the water column
Temperature of the water column
Transmittance and attenuance of the water column
Vertical spatial coordinates

Note: Parameter terms are taken from the BODC Parameter Discovery Vocabulary XML (SKOS)

Full List

BODC Reference Instrument Description Date/Time Location  
656662 CTD/STD cast 2004-11-12 08:35Z 58° 52' N, 3° 46' W Click for more
656674 CTD/STD cast 2004-11-12 10:49Z 58° 39' N, 4° 10' W Click for more
656686 CTD/STD cast 2004-11-13 08:16Z 59° 14' N, 4° 15' W Click for more
656698 CTD/STD cast 2004-11-13 09:31Z 59° 16' N, 3° 58' W Click for more
656705 CTD/STD cast 2004-11-13 14:11Z 59° 43' N, 4° 33' W Click for more
656717 CTD/STD cast 2004-11-13 18:11Z 59° 39' N, 5° 22' W Click for more
656729 CTD/STD cast 2004-11-13 22:04Z 59° 24' N, 5° 18' W Click for more
656730 CTD/STD cast 2004-11-14 08:26Z 59° 0' N, 5° 52' W Click for more
656742 CTD/STD cast 2004-11-14 15:54Z 59° 15' N, 6° 40' W Click for more
656754 CTD/STD cast 2004-11-15 08:07Z 58° 48' N, 6° 54' W Click for more
656766 CTD/STD cast 2004-11-15 09:38Z 58° 41' N, 7° 10' W Click for more
656778 CTD/STD cast 2004-11-15 13:39Z 58° 13' N, 7° 19' W Click for more
656791 CTD/STD cast 2004-11-15 17:58Z 58° 31' N, 8° 1' W Click for more
656809 CTD/STD cast 2004-11-16 08:21Z 58° 14' N, 8° 28' W Click for more
656810 CTD/STD cast 2004-11-16 12:47Z 58° 4' N, 9° 1' W Click for more
656822 CTD/STD cast 2004-11-16 18:02Z 57° 43' N, 9° 5' W Click for more
656834 CTD/STD cast 2004-11-17 08:06Z 57° 39' N, 8° 49' W Click for more
656846 CTD/STD cast 2004-11-17 10:15Z 57° 21' N, 8° 27' W Click for more
656858 CTD/STD cast 2004-11-18 08:09Z 57° 18' N, 9° 3' W Click for more
656871 CTD/STD cast 2004-11-18 10:13Z 56° 58' N, 9° 2' W Click for more
656883 CTD/STD cast 2004-11-18 14:09Z 56° 48' N, 8° 34' W Click for more
656895 CTD/STD cast 2004-11-18 16:17Z 56° 37' N, 8° 23' W Click for more
656902 CTD/STD cast 2004-11-18 20:22Z 56° 15' N, 8° 22' W Click for more
656914 CTD/STD cast 2004-11-19 04:27Z 56° 15' N, 9° 3' W Click for more
656926 CTD/STD cast 2004-11-19 09:30Z 55° 51' N, 9° 1' W Click for more
656938 CTD/STD cast 2004-11-19 12:42Z 55° 28' N, 9° 16' W Click for more
656951 CTD/STD cast 2004-11-19 15:36Z 55° 9' N, 9° 23' W Click for more
656963 CTD/STD cast 2004-11-20 07:12Z 53° 41' N, 10° 52' W Click for more
656975 CTD/STD cast 2004-11-20 08:43Z 53° 43' N, 11° 13' W Click for more
656987 CTD/STD cast 2004-11-20 13:53Z 54° 16' N, 10° 19' W Click for more
656999 CTD/STD cast 2004-11-20 16:32Z 54° 36' N, 10° 19' W Click for more
657002 CTD/STD cast 2004-11-21 07:36Z 54° 33' N, 9° 37' W Click for more
657014 CTD/STD cast 2004-11-21 08:25Z 54° 29' N, 9° 32' W Click for more
657026 CTD/STD cast 2004-11-21 11:14Z 54° 28' N, 8° 55' W Click for more
657038 CTD/STD cast 2004-11-21 13:07Z 54° 36' N, 8° 49' W Click for more
657051 CTD/STD cast 2004-11-21 18:36Z 55° 22' N, 8° 27' W Click for more
657063 CTD/STD cast 2004-11-22 08:03Z 55° 21' N, 6° 43' W Click for more
657075 CTD/STD cast 2004-11-22 13:39Z 55° 13' N, 5° 11' W Click for more
657087 CTD/STD cast 2004-11-22 16:03Z 55° 25' N, 4° 52' W Click for more
657099 CTD/STD cast 2004-11-23 08:37Z 54° 38' N, 4° 7' W Click for more
657106 CTD/STD cast 2004-11-23 09:33Z 54° 39' N, 3° 55' W Click for more
657118 CTD/STD cast 2004-11-23 11:32Z 54° 25' N, 3° 52' W Click for more
657131 CTD/STD cast 2004-11-23 14:08Z 54° 6' N, 4° 4' W Click for more
657143 CTD/STD cast 2004-11-23 16:17Z 53° 56' N, 3° 46' W Click for more
657155 CTD/STD cast 2004-11-24 01:48Z 53° 45' N, 4° 36' W Click for more
657167 CTD/STD cast 2004-11-24 11:10Z 54° 1' N, 5° 12' W Click for more
657179 CTD/STD cast 2004-11-24 14:11Z 53° 48' N, 4° 51' W Click for more
657180 CTD/STD cast 2004-11-24 17:52Z 53° 46' N, 5° 33' W Click for more
657192 CTD/STD cast 2004-11-24 21:04Z 53° 36' N, 5° 51' W Click for more
657211 CTD/STD cast 2004-11-26 15:55Z 54° 18' N, 4° 58' W Click for more
657223 CTD/STD cast 2004-11-26 19:12Z 54° 30' N, 5° 13' W Click for more
657235 CTD/STD cast 2004-11-27 08:00Z 55° 55' N, 6° 42' W Click for more
657247 CTD/STD cast 2004-11-27 10:01Z 56° 0' N, 7° 13' W Click for more
657259 CTD/STD cast 2004-11-27 12:35Z 55° 49' N, 7° 37' W Click for more
657260 CTD/STD cast 2004-11-27 17:38Z 55° 22' N, 8° 15' W Click for more
657272 CTD/STD cast 2004-11-28 03:19Z 55° 49' N, 8° 15' W Click for more
657284 CTD/STD cast 2004-11-28 11:09Z 56° 10' N, 7° 22' W Click for more
657296 CTD/STD cast 2004-11-28 14:04Z 56° 22' N, 6° 49' W Click for more
657303 CTD/STD cast 2004-11-28 17:51Z 56° 26' N, 7° 26' W Click for more
657315 CTD/STD cast 2004-11-28 20:44Z 56° 39' N, 7° 19' W Click for more
657327 CTD/STD cast 2004-11-29 08:06Z 56° 32' N, 7° 19' W Click for more
657339 CTD/STD cast 2004-11-29 09:03Z 56° 38' N, 7° 24' W Click for more
657340 CTD/STD cast 2004-11-29 11:51Z 56° 45' N, 6° 58' W Click for more
657352 CTD/STD cast 2004-11-29 14:53Z 57° 4' N, 7° 3' W Click for more
657364 CTD/STD cast 2004-11-29 18:11Z 57° 7' N, 6° 37' W Click for more
657376 CTD/STD cast 2004-11-30 08:03Z 57° 42' N, 5° 57' W Click for more
657388 CTD/STD cast 2004-11-30 09:36Z 57° 54' N, 6° 12' W Click for more
657407 CTD/STD cast 2004-11-30 12:51Z 58° 2' N, 6° 11' W Click for more
657419 CTD/STD cast 2004-11-30 15:17Z 58° 0' N, 5° 46' W Click for more
657420 CTD/STD cast 2004-11-30 17:53Z 58° 19' N, 5° 54' W Click for more
657432 CTD/STD cast 2004-11-30 20:25Z 58° 24' N, 5° 40' W Click for more
657444 CTD/STD cast 2004-12-01 07:57Z 58° 33' N, 5° 37' W Click for more
657456 CTD/STD cast 2004-12-01 09:36Z 58° 33' N, 6° 4' W Click for more
657468 CTD/STD cast 2004-12-01 11:57Z 58° 46' N, 6° 10' W Click for more
657481 CTD/STD cast 2004-12-01 18:58Z 59° 22' N, 5° 12' W Click for more
657493 CTD/STD cast 2004-12-01 19:59Z 59° 22' N, 5° 12' W Click for more
657500 CTD/STD cast 2004-12-02 09:02Z 59° 33' N, 5° 7' W Click for more
657512 CTD/STD cast 2004-12-02 12:56Z 59° 4' N, 4° 12' W Click for more

Project Database

No data currently held for this cruise in the BODC Project Database

References

Track Charts

No track charts currently available

Reports

Cruise Report